Regional Weather Roundup
Issued by NWS

Home | Current Version | Previous Version | Graphics & Text | Print | Product List | Glossary On
Versions: 1 2 3 4 5 6 7 8 9 10 11 12 13 14 15 16 17 18 19 20 21 22 23 24 25 26 27 28 29 30 31 32 33 34 35 36 37 38 39 40 41 42 43 44 45 46 47 48 49 50
412
ASUS43 KMKX 240000
RWRWI

WISCONSIN REGIONAL WEATHER ROUNDUP
NATIONAL WEATHER SERVICE MILWAUKEE/SULLIVAN WI
700 PM CDT FRI JUN 23 2017

NOTE: "FAIR" INDICATES FEW OR NO CLOUDS BELOW 12,000 FEET WITH NO
SIGNIFICANT WEATHER AND/OR OBSTRUCTIONS TO VISIBILITY.

WIZ001-002-006>008-014>016-023>028-240100-
NORTHWEST WISCONSIN

CITY           SKY/WX    TMP DP  RH WIND       PRES   REMARKS
SUPERIOR ARPT  NOT AVBL
ASHLAND        MOSUNNY   71  49  45 NW13G18   29.73R
6HR MIN TEMP:  65; 6HR MAX TEMP:  72;

HAYWARD        HVY RAIN  62  53  72 VRB7      29.78R
6HR MIN TEMP:  62; 6HR MAX TEMP:  70; 6HR PCP:  0.05;

SIREN          CLOUDY    61  54  78 W3        29.81R
CUMBERLAND     CLOUDY    63  50  63 NW14      29.80R
RICE LAKE      LGT RAIN  67  51  57 W12       29.81R
CHETEK         CLOUDY    67  52  59 W7        29.79R
LADYSMITH      CLOUDY    67  51  57 W15       29.78R
EAU CLAIRE     NOT AVBL
MENOMONIE      CLOUDY    67  51  57 W8        29.81R
6HR MIN TEMP:  66; 6HR MAX TEMP:  72;

NEW RICHMOND   PTSUNNY   67  49  50 NW13G24   29.82S
OSCEOLA        CLOUDY    67  53  60 W10G18    29.85R
$$

WIZ003>005-009-010-017-018-240100-
NORTH CENTRAL WISCONSIN

CITY           SKY/WX    TMP DP  RH WIND       PRES   REMARKS
MANITOWISH WTR PTSUNNY   63  49  58 NW5       29.74R
ARBOR VITAE    CLOUDY    64  48  54 NW9G17    29.74R
WOODRUFF       CLOUDY    64  48  54 NW9G17    29.74R
RHINELANDER    CLOUDY    65  49  56 NW6       29.75R
6HR MIN TEMP:  65; 6HR MAX TEMP:  70;

EAGLE RIVER    CLOUDY    64  45  50 NW13G18   29.73R
LAND O LAKES   MOSUNNY   65  46  48 NW12      29.75R
6HR MIN TEMP:  65; 6HR MAX TEMP:  69;

PHILLIPS       CLOUDY    65  49  56 W8G18     29.75R
TOMAHAWK       NOT AVBL
MEDFORD        CLOUDY    65  50  57 W9        29.76R
MERRILL        CLOUDY    67  51  57 NW8       29.75R
6HR MIN TEMP:  67; 6HR MAX TEMP:  71;

$$

WIZ029-030-035-036-043>047-240100-
CENTRAL WISCONSIN

CITY           SKY/WX    TMP DP  RH WIND       PRES   REMARKS
WAUSAU         CLOUDY    67  49  52 W13       29.74R
6HR MIN TEMP:  67; 6HR MAX TEMP:  73;

MOSINEE        PTSUNNY   68  52  56 W15       29.77R
MARSHFIELD     PTSUNNY   66  49  54 NW10      29.77R
6HR MIN TEMP:  65; 6HR MAX TEMP:  72;

STEVENS POINT  CLOUDY    66  51  58 W9        29.76R
WAUPACA        MOSUNNY   71  52  51 W12G20    29.74R
6HR MIN TEMP:  71; 6HR MAX TEMP:  80; 6HR PCP:  0.01;

WAUTOMA        PTSUNNY   69  54  58 W14       29.76R
6HR MIN TEMP:  69; 6HR MAX TEMP:  78;

WISC RAPIDS    CLOUDY    68  53  58 W9        29.78R
6HR MIN TEMP:  68; 6HR MAX TEMP:  77; 6HR PCP: TRACE;

CAMP DOUGLAS   NOT AVBL
$$

WIZ011>013-019>022-031-037>040-048>050-240100-
NORTHEAST WISCONSIN

CITY           SKY/WX    TMP DP  RH WIND       PRES   REMARKS
ANTIGO         CLOUDY    64  50  59 NW10G18   29.74R
SHAWANO        CLOUDY    71  50  46 W9        29.71R
OCONTO         CLOUDY    72  51  48 W9        29.68R
STURGEON BAY     N/A     71  53  52 W12         N/A
6HR MIN TEMP:  71; 6HR MAX TEMP:  78;

GREEN BAY      CLOUDY    70  54  56 W14G24    29.70R
6HR MIN TEMP:  70; 6HR MAX TEMP:  78;

MANITOWOC      NOT AVBL
APPLETON       PTSUNNY   72  50  46 W14       29.71R
CLINTONVILLE   CLOUDY    70  46  43 NW15G21   29.72R
OSHKOSH        MOSUNNY   70  54  56 W10       29.72R
6HR MIN TEMP:  69; 6HR MAX TEMP:  78;

$$

WIZ032>034-041-042-053>061-240100-
SOUTHWEST WISCONSIN

CITY           SKY/WX    TMP DP  RH WIND       PRES   REMARKS
LA CROSSE      PTSUNNY   75  53  46 W14       29.80R
6HR MIN TEMP:  73; 6HR MAX TEMP:  79;

SPARTA         MOSUNNY   70  55  58 W8        29.80R
VIROQUA        MOSUNNY   68  55  62 CALM      29.82R
BOSCOBEL       MOSUNNY   73  53  49 NW7       29.81R
6HR MIN TEMP:  72; 6HR MAX TEMP:  80;

PRAIRIE DU CHI MOSUNNY   71  53  52 W9        29.82R
PLATTEVILLE    SUNNY     71  54  55 NW17G23   29.82R
$$

WIZ056-057-062-063-064-067-068-240100-
SOUTH CENTRAL WISCONSIN

CITY           SKY/WX    TMP DP  RH WIND       PRES   REMARKS
REEDSBURG      CLOUDY    69  53  58 W10G17    29.78R
BARABOO/DELLS  CLOUDY    71  53  52 NW9       29.78R
LONE ROCK      PTSUNNY   70  54  56 NW13      29.79R
6HR MIN TEMP:  70; 6HR MAX TEMP:  78;

MINERAL POINT  CLOUDY    70  52  52 NW10G18   29.81R
MADISON        PTSUNNY   71  53  52 NW8G20    29.76R
6HR MIN TEMP:  70; 6HR MAX TEMP:  79;

MIDDLETON      MOSUNNY   72  54  54 NW13      29.77S
WATERTOWN      MOSUNNY   72  55  54 W10G20    29.74R
MONROE         CLOUDY    70  52  52 W10G18    29.78S
JANESVILLE     MOSUNNY   73  54  49 NW13G24   29.75R
$$

WIZ051-052-058>065-066-070>072-240100-
SOUTHEAST WISCONSIN

CITY           SKY/WX    TMP DP  RH WIND       PRES   REMARKS
MILWAUKEE      CLOUDY    77  52  41 NW20G29   29.70R
6HR MIN TEMP:  77; 6HR MAX TEMP:  82;

WAUKESHA       MOSUNNY   72  52  49 W13G24    29.73R
MILWAUKEE/TIMM MOSUNNY   73  48  40 NW14G21   29.72R
RACINE         CLOUDY    76  52  43 NW10      29.72R
6HR MIN TEMP:  76; 6HR MAX TEMP:  81;

KENOSHA        CLOUDY    76  55  48 NW15G21   29.72R
6HR MIN TEMP:  74; 6HR MAX TEMP:  80;

FOND DU LAC    MOSUNNY   70  49  47 NW16G24   29.74R
6HR MIN TEMP:  70; 6HR MAX TEMP:  79;

SHEBOYGAN      CLOUDY    72  55  55 NW13G24   29.71R
6HR MIN TEMP:  72; 6HR MAX TEMP:  79;

WEST BEND      CLOUDY    72  52  49 NW18G24   29.72R
JUNEAU         MOSUNNY   69  52  53 NW9G17    29.75R
$$

LSZ147-162-240100-
LAKE SUPERIOR

STATION/POSITION TIME  TEMP    WIND        PRES    WAVE
                       AIR SEA DIR/SP/G            HT/PER
                 (UTC) (F)     (DEG/KT/KT) (MB)    (FT/S)
W MID LAKE BUOY  2250   47 39  250/  8/ 10 1004.8R   2/ 4
DEVILS ISLAND    2300   59     230/  9/ 10 1005.6S
SAXON HARBOR     2330   66     300/  3/  6 1006.1S
$$

LMZ867-665-643>646-240100-
LAKE MICHIGAN

STATION/POSITION TIME  TEMP    WIND        PRES    WAVE
                       AIR SEA DIR/SP/G            HT/PER
                 (UTC) (F)     (DEG/KT/KT) (MB)    (FT/S)
CHAMBERS ISLAND  2330   73     320/  2/  8 1004.1R
S GREEN BAY BUOY 2330   71     280/ 14/ 17 1004.7R
N MID LAKE BUOY  2250   64 57  340/ 12/ 12 1003.2R   1/ 3
NORTHPORT PIER   2340   72     300/  6/ 13 1003.7R
KEWAUNEE LAKESHO 2330   73     300/  6/ 10 1004.6R
SHEBOYGAN LAKESH 2300   75     290/ 17/ 22 1004.3R
PORT WASHINGTON  2340   76     300/  8/ 15 1006.4R
ATWATER BUOY     2209   72 59  260/  8/ 12 1005.5R
MILWAUKEE LAKESH 2340   75     310/  7/  9   N/A
S MID LAKE BUOY  2250   66 63  210/  8/  8 1005.1F   0
KENOSHA   LAKESH 2300   79     270/ 11/ 14 1005.1
$$

TC  - TEMPERATURE IN CELSIUS
VSB - VISIBILITY IN STATUTE MILES
WCI - WIND CHILL INDEX
HX  - HEAT INDEX





USA.gov is the U.S. government's official web portal to all federal, state and local government web resources and services.